Back to catalog

COSMOS 1603 DEB

AliveLEO
NORAD 43312·DEBRIS·🇷🇺 Russia

Launched Sep 28, 1984 from Baikonur Cosmodrome

Loading…

Next Passes (next 24 hours)

TLE

AgingSource: Space-Track

Epoch: Sep 12, 2026, 20:59 UTC

1 43312U 84106AE  26255.87465514  .00000642  00000-0  31131-3 0  9996
2 43312  71.0244 191.8800 0015256  85.2451 275.0417 14.22106043547155

Track COSMOS 1603 DEB in real time with AllMySat

Download on the App Store